Location: Chuathbaluk
(61.5726°N, 159.2454°W)
Time: 16:06:52
(UTC+00:00)

Altair - Visible Passes

Search period start: 26 November 2020 00:00
Search period end: 06 December 2020 00:00
Orbit: 1502 x 1682 km, 47.2° (Epoch: 25 November)

Date Brightness Start Highest point End Pass type
(mag) Time Alt. Az. Time Alt. Az. Time Alt. Az.
30 Nov 9.3 06:08:44 10° S 06:09:09 11° S 06:09:09 11° S visible
01 Dec 9.1 05:44:06 10° S 05:45:41 13° SSE 05:45:41 13° SSE visible
01 Dec 9.5 07:43:42 10° SW 07:43:44 10° SW 07:43:44 10° SW visible
02 Dec 9.0 05:19:32 10° SSE 05:22:10 14° SSE 05:22:10 14° SSE visible
02 Dec 9.2 07:18:45 10° SSW 07:20:13 15° SSW 07:20:13 15° SSW visible
03 Dec 9.0 04:55:02 10° SSE 04:58:38 14° SE 04:58:38 14° SE visible
03 Dec 9.0 06:53:49 10° SSW 06:56:40 19° SSW 06:56:40 19° SSW visible
04 Dec 9.0 04:30:38 10° SSE 04:34:14 13° SE 04:35:02 13° SE visible
04 Dec 8.7 06:28:53 10° SSW 06:33:04 22° S 06:33:04 22° S visible
04 Dec 9.5 08:30:56 10° WSW 08:31:06 11° WSW 08:31:06 11° WSW visible
05 Dec 9.0 04:06:23 10° SSE 04:09:17 12° SE 04:11:24 11° ESE visible
05 Dec 8.6 06:03:59 10° SSW 06:09:25 24° S 06:09:25 24° S visible
05 Dec 9.2 08:05:53 10° WSW 08:07:27 15° SW 08:07:27 15° SW visible
